KG4WIV Weather Reports


time (UTC)temp
F
wind
direction
speed
knots
gust
knots
rain 1hr
in
rain 24hr
in
rain mn
in
humidity
%
barometer
mb
20260506033031 70 244 0.0 0.0 0.00 0.00 0.00 49 1013.4
20260506031531 70 244 0.0 0.0 0.00 0.00 0.00 47 1013.5
20260506030031 70 234 0.0 0.9 0.00 0.00 0.00 47 1013.4
20260506024527 70 213 0.0 0.9 0.00 0.00 0.00 49 1013.6
20260506023025 70 213 0.0 0.0 0.00 0.00 0.00 54 1013.4
20260506021525 69 213 0.0 0.0 0.00 0.00 0.00 51 1013.3
20260506020025 69 213 0.0 0.0 0.00 0.00 0.00 53 1013.4
20260506014529 70 213 0.0 0.9 0.00 0.00 0.00 51 1013.1
20260506013032 70 213 0.0 0.0 0.00 0.00 0.00 54 1013.3
20260506011539 71 213 0.0 0.0 0.00 0.00 0.00 54 1012.9
20260506010028 72 213 0.0 0.0 0.00 0.00 0.00 47 1012.9
20260506004535 73 213 0.0 0.9 0.00 0.00 0.00 45 1012.9
20260506003023 73 213 0.0 1.7 0.00 0.00 0.00 44 1013.0
20260506001522 73 245 0.0 1.7 0.00 0.00 0.00 46 1012.9
20260506000022 73 244 0.0 0.0 0.00 0.00 0.00 51 1013.1
20260505234532 74 244 0.0 0.0 0.00 0.00 0.00 50 1013.0
20260505233034 75 244 0.0 0.0 0.00 0.00 0.00 46 1013.0
20260505231538 75 244 0.0 1.7 0.00 0.00 0.00 45 1012.9
20260505230033 76 208 0.0 0.9 0.00 0.00 0.00 43 1012.7
20260505224523 76 207 0.0 2.6 0.00 0.00 0.00 40 1012.8
20260505223022 76 205 0.0 1.7 0.00 0.00 0.00 39 1013.0
20260505221522 77 231 0.0 0.9 0.00 0.00 0.00 40 1013.0
20260505220042 77 255 0.0 1.7 0.00 0.00 0.00 39 1012.7
20260505214528 77 207 0.9 2.6 0.00 0.00 0.00 37 1012.9
20260505213021 78 213 1.7 4.3 0.00 0.00 0.00 36 1013.0
20260505211519 78 242 1.7 4.3 0.00 0.00 0.00 35 1013.0
20260505210018 78 246 0.0 4.3 0.00 0.00 0.00 37 1013.0
20260505204519 77 275 0.0 4.3 0.00 0.00 0.00 41 1013.3
20260505203015 78 257 0.9 3.5 0.00 0.00 0.00 38 1013.4
20260505201520 77 301 0.9 5.2 0.00 0.00 0.00 36 1013.4
20260505200017 77 180 1.7 5.2 0.00 0.00 0.00 37 1013.8
20260505194520 77 215 1.7 4.3 0.00 0.00 0.00 37 1014.2
20260505193021 76 250 0.9 4.3 0.00 0.00 0.00 39 1014.3
20260505191508 77 253 0.0 5.2 0.00 0.00 0.00 41 1014.3
20260505190007 77 226 0.0 3.5 0.00 0.00 0.00 40 1014.4
20260505184505 77 253 0.9 6.1 0.00 0.00 0.00 40 1014.5
20260505183005 76 195 1.7 4.3 0.00 0.00 0.00 40 1014.5
20260505181502 77 256 0.0 4.3 0.00 0.00 0.00 41 1014.7
20260505180100 76 237 0.0 4.3 0.00 0.00 0.00 42 1015.1
20260505174558 76 229 1.7 4.3 0.00 0.00 0.00 40 1015.3
20260505173057 75 212 0.9 3.5 0.00 0.00 0.00 44 1015.5
20260505171519 75 235 1.7 4.3 0.00 0.00 0.00 44 1015.8
20260505170017 74 194 0.9 5.2 0.00 0.00 0.00 42 1015.8
20260505164516 74 196 1.7 6.1 0.00 0.00 0.00 43 1015.8
20260505163014 73 179 1.7 7.0 0.00 0.00 0.00 45 1015.6
20260505161514 73 186 1.7 3.5 0.00 0.00 0.00 46 1015.6
20260505153006 69 264 0.0 1.7 0.00 0.00 0.00 58 1016.1
20260505151501 68 15 0.9 1.7 0.00 0.00 0.00 62 1016.0
20260505123032 50 257 0.0 0.0 0.00 0.00 0.00 95 1015.9
20260505121535 49 257 0.0 0.0 0.00 0.00 0.00 95 1015.8
20260505120040 48 257 0.0 0.0 0.00 0.00 0.00 95 1015.8
20260505113021 46 257 0.0 0.0 0.00 0.00 0.00 94 1015.3
20260505111522 46 257 0.0 0.0 0.00 0.00 0.00 94 1014.9
20260505101525 47 257 0.0 0.0 0.00 0.00 0.00 93 1014.7
20260505100025 47 257 0.0 0.0 0.00 0.00 0.00 93 1014.8
20260505093020 47 257 0.0 0.0 0.00 0.00 0.00 92 1014.8
20260505091519 47 257 0.0 0.0 0.00 0.00 0.00 92 1014.7
20260505090016 48 257 0.0 0.0 0.00 0.00 0.00 92 1015.1
20260505083011 48 257 0.0 0.9 0.00 0.00 0.00 92 1015.0
20260505081516 48 257 0.0 0.0 0.00 0.00 0.00 91 1015.0
20260505080009 48 257 0.0 0.9 0.00 0.00 0.00 91 1015.0
20260505073012 49 257 0.0 0.0 0.00 0.00 0.00 91 1015.1
20260505071511 49 257 0.0 0.0 0.00 0.00 0.00 90 1015.1
20260505070010 49 257 0.0 0.0 0.00 0.00 0.00 90 1015.1
20260505063011 50 257 0.0 0.0 0.00 0.00 0.00 89 1015.0
20260505061517 50 257 0.0 0.0 0.00 0.00 0.00 88 1015.2
20260505060010 51 257 0.0 0.0 0.00 0.00 0.00 88 1015.2
20260505053006 52 257 0.0 0.0 0.00 0.00 0.00 86 1015.4
20260505051503 52 257 0.0 0.0 0.00 0.00 0.00 85 1015.3
20260505040047 55 257 0.0 0.0 0.00 0.00 0.00 81 1015.1
20260505040012 55 257 0.0 0.0 0.00 0.00 0.00 80 1015.1